Hourly Data Report for March 27, 2021

KUGAARUK CLIMATE
NUNAVUT
Current Station Operator: ECCC - MSC

68°32'15.060" N
89°47'47.020" W
15.80 m
2303094
71407
NBB

Download Data

Hourly Data (March 2021)
Hourly Data Report for March 27, 2021
TIME
LST
Temp Definition
°C
Dew Point Definition
°C
Rel Hum Definition
%
Precip. Amount Definition
mm

Wind Dir Definition
10's deg

Wind Spd Definition
km/h
Visibility Definition
km
Stn Press Definition
kPa
Hmdx Definition


Wind Chill Definition


Weather Definition


00:00 -19.3 -22.7 75 0.0 21 31   100.90   -32 LegendNANA
01:00 -20.1 -23.3 75 0.0 21 25   100.88   -32 LegendNANA
02:00 -20.7 -24.1 75 0.0 21 20   100.86   -31 LegendNANA
03:00 -21.1 -24.5 74 0.0 21 20   100.84   -32 LegendNANA
04:00 -21.5 -25.1 73 0.0 18 18   100.81   -32 LegendNANA
05:00 -24.9 -27.8 77 0.0 27 6   100.82   -31 LegendNANA
06:00 -25.2 -27.7 80 0.0 4 5   100.83   -30 LegendNANA
07:00 -26.2 -29.9 71 0.0 6 5   100.80   -31 LegendNANA
08:00 -25.4 -29.5 68 0.2   0   100.79     LegendNANA
09:00 -24.2 -28.0 71 0.0 24 13   100.77   -34 LegendNANA
10:00 -24.0 -28.5 66 0.2 28 9   100.76   -31 LegendNANA
11:00 -23.7 -28.2 66 0.0 24 4   100.75   -28 LegendNANA
12:00 -23.9 -28.5 66 0.2 25 7   100.75   -30 LegendNANA
13:00 -23.9 -28.5 66 0.0 26 8   100.75   -31 LegendNANA
14:00 -24.1 -28.6 66 0.0 26 12   100.74   -33 LegendNANA
15:00 -24.5 -28.5 70 0.0 24 12   100.76   -33 LegendNANA
16:00 -25.1 -28.8 71 0.0 23 8   100.77   -32 LegendNANA
17:00 -25.7 -28.8 75 0.0 27 5   100.78   -31 LegendNANA
18:00 -27.3 -30.0 78 0.0 27 3   100.77   -30 LegendNANA
19:00 -27.6 -30.3 78 0.0 25 5   100.77   -33 LegendNANA
20:00 -26.9 -29.5 78 0.2 25 5   100.76   -32 LegendNANA
21:00 -25.5 -28.4 77 0.0 22 14   100.76   -35 LegendNANA
22:00 -26.6 -29.7 75 0.0 23 16   100.77   -38 LegendNANA
23:00 -26.4 -29.3 76 0.0 24 14   100.78   -37 LegendNANA

Notes on Data Quality.

Legend

  • E = Estimated
  • M = Missing
  • NA = Not Available*
  • [empty] = Indicates an unobserved value
Date modified: